星链-31130 (STARLINK-31130 )

导读

STARLINK-31130是美国SpaceX公司星链星座的一员,于2023年12月29日发射。星链项目旨在构建全球低轨宽带卫星互联网,为全球各地提供高速互联网接入。该卫星采用平板设计,配备霍尔推进器,具备自主避撞能力,寿命结束后会主动离轨坠入大气层烧毁。作为星链大规模组网的组成部分,它助力星链实现更广泛的全球覆盖,推动低轨卫星通信发展。

基本信息
目录编号:
58667
目录名称:
STARLINK-31130
国际标识:
2023-211A
轨道中心:
EARTH
卫星名称:
星链-31130
卫星全名:
星链-31130 (STARLINK-31130 )
卫星状态:
已陨落 最后检测时间 2024-01-04
发射日期:
2023-12-29 UTC
国别 :
美国 (US)
星等 :
--
轨道信息
数据来源 国际轨道数据
星历时间: 2024-01-05T03:03:34+0800
轨道信息已过期935天
半长轴: 6565.935km
偏心率: 0.0004756
轨道倾角: 42.995°
近地点辐角 247.889°
升交点赤经 255.218°
平近点角 285.889°
近地点: 184.677km
远地点: 190.923km
周期: 88.248分钟
每日圈数: 16.317662
详细信息
固有亮度:
5
最大亮度:
0.3
卫星平台:
Starlink v2.0 mini
覆盖范围:
全球
运营商:
太空探索技术公司
运营商所在国:
美国
制造商(研发单位):
太空探索技术公司
制造商所在国:
美国
使用方式:
暂无
卫星简介
星链(Starlink)计划是由太空探索技术公司(SpaceX)提出的一个巨型低轨卫星互联网星座项目,计划在2019年至2024年间在太空搭建由约1.2万颗卫星组成的“星链”网络,其中1584颗将部署在地球上空550千米处的近地轨道,并从2020年开始工作。该卫星已陨落。